Starlink 6160

operational
NORAD ID: 56382 Int'l Des: 2023-061 Owner: SPXS Country: US Constellation: starlink
LEOCIRCULAR

Starlink 6160について

説明を読み込み中...

リアルタイム位置

3D地球を読み込み中...

次回通過

高度履歴

Altitude vs Time

uPlot chart will show altitude changes over time

軌道要素

1 56382U 23061J 25305.90336685 -.00001437 00000-0 -91360-4 0 9991
2 56382 43.0022 171.6982 0001067 271.7665 88.3055 15.02529059137535
Epoch: Nov 1, 2025 • Age: 27 hours

現在のステータス

高度 561.3 km
速度 7.58 km/s
衛星直下点 -13.74°S, 97.21°E
打ち上げ日 May 4, 2023
運用期間 2.4 years
タイプ internet

技術仕様

分類 Payload
質量 305.00 kg
乾燥質量 290.00 kg
総質量 305.00 kg
長さ 0.20 m
直径 2.80 m
スパン 9.00 m
形状 Box + pan
製造者 SPXS
バスタイプ Starlink
フェーズステータス In Orbit
所有者/国 SPXS/US

大規模コンステレーション

Loading constellations...